Погода Улан-Удэ

Погода Улан-Удэ : погода сейчас, прогноз погоды и архив. Всё, что Вы хотите узнать о погоде Улан-Удэ!

Поиск расширенной информации на нашем сайте:

Другие новости

Новости СМИ2

Главная страница сайта

Новости сайта

02.10.2013

Напоминаем, что на нашем новом сайте вы можете получить высокодетализированные прогнозы погоды по пунктам России, СНГ и мира (включающие важные для авиации метеовеличины, такие как направление и скорость ветра, видимость, явления погоды, количество и форма облачности, нижняя и верхняя граница облачности), а также ознакомиться с разнообразными материалами по авиационной метеорологии и подборкой полезных ссылок на эту тему.

Сайт Метеоцентр.Азия посвящён разработке технологий оптимизации авиаметеорологического обслуживания, включая проектирование и перспективное создание нескольких автоматизированных авиаметеорологических систем:
- система выпуска высокодетальных прогностических карт явлений погоды для нижнего воздушного пространства по России и ближнему зарубежью;
- система верификации прогнозов TAF (выпускаемых синоптиками официальных АМСГ РФ и ближнего зарубежья) и AUTOTAF (выпускаемых сайтом Метеоцентр.Азия) - выявление ошибок, онлайн-сопоставление с фактической погодой METAR, автоматическое внесение коррективов в прогнозы при резком отклонении фактической погоды от прогноза, подсчёт оправдываемости прогнозов по элементам и в целом;
- система обработки, анализа и отображения авиаметеорологической информации для применения провайдерами метеорологической информации.


Погода Улан-Удэ - сегодня

Время (UTC), дата Ветер
(°,м/с) 
Видим.   Явления Облачность Т
(°С)
Тd
(°С)
f(%) Тe
(°С)
Pmin
(гПа)
dP
(гПа)
Po
(мм)
O2
(г/м3)
Тmin Tmax R s Состояние
почвы
03 18.01.17 240 (ЮЗ) 20000 м  дым{снег}  10/0 средняя, верхняя 
[As trans|Cs]
-23.7 -28.8 63 -28  1046.1  0.5  732  325           
06 18.01.17 250 (З) 20000 м  дым{снег}  10/0 верхняя 
[Ci]
-20.2 -26.8 56 -23  1043.7  -1.3  731  320           
09 18.01.17 240 (ЮЗ) 20000 м  дым  9/0 средняя, верхняя 
[As trans|Ci fib]
-21.4 -27.1 60 -24  1044  731  321           
12 18.01.17 300 (СЗ) 20000 м  дым  9/0 средняя, верхняя 
[Ac trans|Ci fib]
-24 -28.4 67 -24  1044.8  0.1  731  325    -19.1  0.0     
15 18.01.17 300 (СЗ) 10 км  дым  3/0 верхняя 
[Ci fib]
-26 -29.8 70 -27  1045.1  -0.3  730  327           
18 18.01.17 310 (СЗ) 20000 м  дым  ясно 
-28.3 -31.8 72 -32  1045.2  -0.6  730  330           
21 18.01.17 300 (СЗ) 20000 м  дым  ясно 
-30.3 -34.1 69 -31  1045.5  -0.3  730  333           
00 19.01.17 310 (СЗ) 20000 м  дым  8/0 верхняя 
[Cs]
-30.5 -34.2 70 -31  1045.3  -0.2  730  333  -31      равномерный
сухой снег
100% 
03 19.01.17 250 (З) 20000 м  дым  8/0 верхняя 
[Ci fib]
-26.9 -31.2 67 -30  1043.9  -0.3  729  328           
06 19.01.17 250 (З) 20000 м  дым  10/0 верхняя 
[Ci fib]
-22.8 -29.4 55 -23  1040.2  -2.4  728  322           
09 19.01.17 тихо ()   20000 м  дым  10/0 верхняя 
[Ci fib]
-22.7 -28.9 57 -23  1038.5  -1.5  727  321           
12 19.01.17 210 (ЮЗ) 20000 м  дым  10/0 средняя, верхняя 
[Ac trans|Ci fib]
-23.3 -29.1 59 -24  1037  -1.6  725  321    -21.7       
15 19.01.17 260 (З) 20000 м  дым  10/0 средняя 
[As op]
-23 -28.4 61 -23  1035.5  -1.3  724  320           
18 19.01.17 290 (З) 10 км  слаб. снег  10/0 средняя 
[As op]
-23 -26.7 72 -23  1034.4  -1  724  320           
21 19.01.17 270 (З) 20000 м  слаб. снег  10/0 средняя 
[As op]
-23 -26.7 72 -26  1033.8  -0.5  723  320           
00 20.01.17 270 (З) 20000 м  слаб. снег  10/0 средняя 
[As op]
-22.9 -26.9 70 -29  1034.3  0.5  724  320  -23.7    0.3  равномерный
сухой снег
100% 
03 20.01.17 270 (З) 10 км  слаб. снег  10/0 средняя, верхняя 
[As op|Cs]
-20.4 -24.7 68 -25  1034.9  1.2  724  317           
06 20.01.17 290 (З) 6-10{12}  20000 м  позёмок{снег}  10/3 600 м кучево-дожд., средняя, верхняя 
[Cb cap|Ac As|Ci fib]
-14.9 -22.5 52 -21  1033.1  -0.3  724  310           
09 20.01.17 330 (СЗ) 2{10}  20000 м  слаб. ливневой снег  10/4 600 м кучево-дожд., средняя, верхняя 
[Cb cap|Ac lent|Ci fib]
-16.3 -21.8 62 -19  1035.8  2.1  726  313           
12 20.01.17 тихо ()   20000 м  дым{ливн. осадки}  10/4 600 м кучево-дожд., верхняя 
[Cb cap|Ci fib]
-18.3 -23 67 -18  1038.1  1.6  727  316    -14.7  0.0     
15 20.01.17 240 (ЮЗ) 20000 м    10/0 средняя, верхняя 
[Ac lent|Ci fib]
-22.1 -25.9 71 -22  1040.2  728  321           
18 20.01.17 210 (ЮЗ) 20000 м    10/0 верхняя 
[Ci fib]
-25.6 -29 73 -29  1041.7  0.4  728  326           
21 20.01.17 210 (ЮЗ) 20000 м    4/0 верхняя 
[Ci fib]
-29 -32.3 73 -33  1043.6  0.9  729  330           
00 21.01.17 310 (СЗ) 20000 м  дым  ясно 
-29.7 -33.2 72 -30  1044.4  0.5  729  332  -30.9      равномерный
сухой снег
100% 
03 21.01.17 080 (В) 4000 м  дымка  ясно 
-27.2 -31.2 69 -31  1044.5  0.7  730  328  -31         
Время (UTC), дата Ветер
(°,м/с) 
Видим.   Явления Облачность Т
(°С)
Тd
(°С)
f(%) Тe
(°С)
Pmin
(гПа)
dP
(гПа)
Po
(мм)
O2
(г/м3)
Тmin Tmax R s Состояние
почвы

Для получения пояснительной информации подведите курсор к названию столбца.

ПОГОДА Улан-Удэ - архив

Всё, что Вы хотите узнать о погоде Улан-Удэ - удобно и подробно!

Выберите нужную дату (начиная с 1 января 2015* года) и нажмите кнопку "Найти".
Будут отображены архивные сводки погоды по пункту Улан-Удэ, начиная с указанной даты.


Отображать данные в формате CSV (для использования в таблицах Excel)


Внимание! Наш архив погоды предназначен исключительно для личного некоммерческого использования в познавательных целях. Если Вам необходимы официальные справки о состоянии погоды (для производственных, юридических, коммерческих и т.п. целей), обращайтесь в органы Росгидромета.

*Примечание: данная дата относится к архиву по метеостанциям СССР (Россия, СНГ, Балтия).
Архив по метеостанциям Зарубежной Европы и Азии (кроме Китая) хранится 10 дней, по другим регионам земного шара (Китай, Африка, Америка, Австралия, Океания) - 1 день.

Улан-Удэ - район местоположения метеостанции


Название, широта, долгота, высота метеостанции:
Улан-Удэ (город) 51.8°ш. 107.5°д. 530 м над ур. моря [Российская Федерация]

Дополнительная информация

В oтличие oт бoльшинства пoгoдных сайтoв мы публикуем пoдрoбную метеoинфoрмацию в детальнoм прoфессиoнальнoм фoрмате.

Характеристики температуры и влажнoсти вoздуха измеряются на высoте 2 м в тени вдали oт зданий и деревьев.
Скoрoсть ветра измеряется на высoте 10 м (на урoвне рoста челoвека скoрoсть ветра ниже в 1.5-2 раза). Если метеoстанция нахoдится в гoрoде или в лесу, тo скoрoсть ветра занижена на 2-4 м/с пo сравнению с oткрытым местoм. Скoрoсть ветра над акватoриями крупных рек и oзёр, а также на вершинах хoлмoв на 2-5 м/с выше, чем в oбычных услoвиях.
Атмoсфернoе давление в разных тoчках местнoсти мoжет значительнo oтличаться oт давления на метеoстанции, в зависимoсти oт услoвий рельефа (при пoдъёме на 10 м давление пoнижается примернo на 1 мм рт.ст.).